Skip Page Navigation
NASA JPL Caltech
NASA Logo - Jet Propulsion Laboratory + View the NASA Portal
+ Center for Near-Earth Object Studies
JPL Home Earth Solar System Stars & Galaxies Technology
JPL Solar System Dynamics
BODIES ORBITS EPHEMERIDES TOOLS PHYSICAL DATA DISCOVERY FAQ SITE MAP
IMPORTANT: The SSD Announcement email list is now available. Major changes are coming in the near future, including possible hostname and/or URL changes. To be notified of such changes, subscribe to this email list.

Please visit this page for more details.


JPL Small-Body Database Browser
Search: [ help ]  
48506 (1993 FO10)
Classification: Main-belt Asteroid          SPK-ID: 2048506
Ephemeris | Orbit Diagram | Orbital Elements | Mission Design | Physical Parameters | Discovery Circumstances | Close-Approach Data ]

[ show orbit diagram ]
Orbital Elements at Epoch 2458600.5 (2019-Apr-27.0) TDB
Reference: JPL 24 (heliocentric ecliptic J2000)
 Element Value Uncertainty (1-sigma)   Units 
e .1895395232989346 4.1403e-08  
a 3.148849815729175 2.2311e-08 au
q 2.552018322715929 1.3238e-07 au
i 16.53071364051172 5.6656e-06 deg
node 175.8108448808055 1.6739e-05 deg
peri 295.1489800643329 2.22e-05 deg
M 296.104568748326 1.6038e-05 deg
tp 2458962.737704447583
(2020-Apr-23.23770445)
9.2319e-05 TDB
period 2040.921722360444
5.59
2.1692e-05
5.939e-08
d
yr
n .1763908904765045 1.8747e-09 deg/d
Q 3.745681308742421 2.654e-08 au
  Orbit Determination Parameters
   # obs. used (total)      935  
   data-arc span      9721 days (26.61 yr)  
   first obs. used      1993-03-17  
   last obs. used      2019-10-28  
   planetary ephem.      DE431  
   SB-pert. ephem.      SB431-N16  
   condition code      0  
   norm. resid. RMS      .54792  
   source      ORB  
   producer      Otto Matic  
   solution date      2019-Nov-07 06:37:20  

Additional Information
 Earth MOID = 1.6176 au 
 Jupiter MOID = 1.57031 au 
 T_jup = 3.117 
[ show covariance matrix ]

Ephemeris | Orbit Diagram | Orbital Elements | Mission Design | Physical Parameters | Discovery Circumstances | Close-Approach Data ]

Physical Parameter Table
Parameter Symbol Value Units Sigma Reference Notes
absolute magnitude H 14.0   n/a MPO417153  
diameter diameter 7.141 km 0.149 urn:nasa:pds:neowise_diameters_albedos::2.0[mainbelt] (http://adsabs.harvard.edu/abs/2011ApJ...741...68M)  
geometric albedo albedo 0.117   0.015 urn:nasa:pds:neowise_diameters_albedos::2.0[mainbelt] (http://adsabs.harvard.edu/abs/2011ApJ...741...68M)  

48506 (1993 FO10)          Discovered 1993-Mar-17 by UESAC at La Silla
Reference: 20021120/Numbers.arcLast Updated: 2004-04-19

[ show close-approach data ]
Ephemeris | Orbit Diagram | Orbital Elements | Mission Design | Physical Parameters | Discovery Circumstances | Close-Approach Data ]
ABOUT SSD CREDITS/AWARDS PRIVACY/COPYRIGHT GLOSSARY LINKS
FirstGov
(server date/time)  
NASA Home Page
Site Manager:   Ryan S. Park
Webmaster  Alan B. Chamberlin